JST111 YPPH-YPAD

Flight info

Callsign JST111
Flight time 2h 25m
Altitude 35000
Route PH H18 BURGU Y135 DADRU Y39 ATNAR N640 AD
Aircraft A21N/M-SDE2E3FGHIRWXY/LB1

Departure

Time 2026-05-01 08:51
Airport Perth International Airport (YPPH)

Arrival

Time 2026-05-01 11:16
Airport Adelaide International Airport (YPAD)
Time Latitude Longitude Altitude Speed Heading
2026-05-01 08:41 -31.93991 115.97519 51 ft 0 kts 182°
2026-05-01 08:45 -31.93989 115.97520 45 ft 1 kts 182°
2026-05-01 08:45 -31.93976 115.97520 46 ft 2 kts 183°
2026-05-01 08:45 -31.93961 115.97521 48 ft 2 kts 192°
2026-05-01 08:45 -31.93946 115.97526 49 ft 2 kts 210°
2026-05-01 08:46 -31.93934 115.97536 49 ft 2 kts 229°
2026-05-01 08:46 -31.93924 115.97550 49 ft 2 kts 254°
2026-05-01 08:46 -31.93921 115.97567 50 ft 2 kts 271°
2026-05-01 08:46 -31.93921 115.97571 51 ft 0 kts 274°
2026-05-01 08:47 -31.93921 115.97561 49 ft 3 kts 274°
2026-05-01 08:47 -31.93919 115.97527 49 ft 6 kts 273°
2026-05-01 08:47 -31.93917 115.97450 50 ft 13 kts 271°
2026-05-01 08:48 -31.93847 115.97357 51 ft 19 kts 329°
2026-05-01 08:48 -31.93705 115.97258 51 ft 27 kts 329°
2026-05-01 08:48 -31.93529 115.97133 49 ft 31 kts 328°
2026-05-01 08:48 -31.93348 115.97056 51 ft 26 kts 12°
2026-05-01 08:49 -31.93166 115.97110 51 ft 28 kts 14°
2026-05-01 08:49 -31.92988 115.97160 51 ft 11 kts
2026-05-01 08:49 -31.92930 115.97097 51 ft 13 kts 285°
2026-05-01 08:49 -31.92907 115.96977 47 ft 18 kts 283°
2026-05-01 08:50 -31.92901 115.96850 50 ft 12 kts 241°
2026-05-01 08:50 -31.92973 115.96813 49 ft 12 kts 194°
2026-05-01 08:50 -31.93212 115.96746 48 ft 75 kts 193°
2026-05-01 08:50 -31.93960 115.96529 52 ft 142 kts 193°
2026-05-01 08:51 -31.95070 115.96210 321 ft 176 kts 193°
2026-05-01 08:51 -31.96318 115.95859 982 ft 192 kts 193°
2026-05-01 08:51 -31.97659 115.95472 1658 ft 205 kts 193°
2026-05-01 08:51 -31.99118 115.95036 2164 ft 227 kts 193°
2026-05-01 08:52 -32.00771 115.94850 2798 ft 243 kts 169°
2026-05-01 08:52 -32.02278 115.95672 3844 ft 244 kts 141°
2026-05-01 08:52 -32.03300 115.97304 4734 ft 254 kts 116°
2026-05-01 08:52 -32.03844 115.99309 5640 ft 260 kts 108°
2026-05-01 08:53 -32.04307 116.01390 6546 ft 265 kts 107°
2026-05-01 08:53 -32.04766 116.03502 7402 ft 268 kts 108°
2026-05-01 08:53 -32.05244 116.05653 8215 ft 274 kts 109°
2026-05-01 08:53 -32.05743 116.07842 9069 ft 277 kts 110°
2026-05-01 08:54 -32.06251 116.10044 9937 ft 281 kts 111°
2026-05-01 08:54 -32.06780 116.12300 10571 ft 292 kts 112°
2026-05-01 08:54 -32.07351 116.14697 10815 ft 316 kts 112°
2026-05-01 08:54 -32.07964 116.17279 11093 ft 336 kts 111°
2026-05-01 08:55 -32.08591 116.19965 11747 ft 342 kts 111°
2026-05-01 08:55 -32.09220 116.22688 12427 ft 347 kts 111°
2026-05-01 08:55 -32.09861 116.25463 13083 ft 353 kts 112°
2026-05-01 08:55 -32.10512 116.28277 13761 ft 358 kts 112°
2026-05-01 08:56 -32.11174 116.31131 14353 ft 364 kts 112°
2026-05-01 08:56 -32.11846 116.34027 14969 ft 368 kts 112°
2026-05-01 08:56 -32.12526 116.36953 15559 ft 372 kts 112°
2026-05-01 08:56 -32.13214 116.39919 16149 ft 377 kts 112°
2026-05-01 08:57 -32.13909 116.42923 16719 ft 382 kts 112°
2026-05-01 08:57 -32.14610 116.45957 17286 ft 386 kts 111°
2026-05-01 08:57 -32.15319 116.49035 17843 ft 391 kts 111°
2026-05-01 08:57 -32.16034 116.52144 18398 ft 395 kts 111°
2026-05-01 08:58 -32.16756 116.55288 18898 ft 399 kts 111°
2026-05-01 08:58 -32.17480 116.58455 19436 ft 401 kts 111°
2026-05-01 08:58 -32.18207 116.61638 19969 ft 403 kts 111°
2026-05-01 08:58 -32.18940 116.64845 20486 ft 406 kts 111°
2026-05-01 08:59 -32.19677 116.68076 21008 ft 408 kts 111°
2026-05-01 08:59 -32.20416 116.71321 21504 ft 411 kts 111°
2026-05-01 08:59 -32.21160 116.74590 22005 ft 414 kts 111°
2026-05-01 08:59 -32.21909 116.77885 22499 ft 417 kts 111°
2026-05-01 09:00 -32.22662 116.81203 23000 ft 419 kts 111°
2026-05-01 09:00 -32.23418 116.84540 23471 ft 422 kts 111°
2026-05-01 09:00 -32.24178 116.87897 23933 ft 425 kts 111°
2026-05-01 09:00 -32.24941 116.91277 24369 ft 426 kts 111°
2026-05-01 09:01 -32.25704 116.94664 24821 ft 427 kts 111°
2026-05-01 09:01 -32.26458 116.98011 25201 ft 429 kts 111°
2026-05-01 09:01 -32.27226 117.01424 25621 ft 430 kts 111°
2026-05-01 09:01 -32.27994 117.04837 26023 ft 431 kts 111°
2026-05-01 09:02 -32.28764 117.08267 26417 ft 432 kts 111°
2026-05-01 09:02 -32.29536 117.11708 26815 ft 434 kts 111°
2026-05-01 09:02 -32.30308 117.15159 27188 ft 435 kts 111°
2026-05-01 09:02 -32.31081 117.18617 27566 ft 436 kts 111°
2026-05-01 09:03 -32.31856 117.22089 27931 ft 437 kts 112°
2026-05-01 09:03 -32.32631 117.25566 28281 ft 438 kts 112°
2026-05-01 09:03 -32.33408 117.29055 28617 ft 439 kts 112°
2026-05-01 09:03 -32.34185 117.32548 28953 ft 440 kts 112°
2026-05-01 09:04 -32.34963 117.36056 29269 ft 441 kts 112°
2026-05-01 09:04 -32.35741 117.39566 29584 ft 442 kts 112°
2026-05-01 09:04 -32.36521 117.43090 29891 ft 443 kts 112°
2026-05-01 09:04 -32.37301 117.46621 30199 ft 444 kts 112°
2026-05-01 09:05 -32.38083 117.50164 30453 ft 446 kts 112°
2026-05-01 09:05 -32.38868 117.53725 30693 ft 447 kts 112°
2026-05-01 09:05 -32.39655 117.57298 30942 ft 448 kts 112°
2026-05-01 09:05 -32.40429 117.60818 31188 ft 449 kts 112°
2026-05-01 09:06 -32.41215 117.64402 31436 ft 451 kts 112°
2026-05-01 09:06 -32.42002 117.67995 31691 ft 451 kts 112°
2026-05-01 09:06 -32.42790 117.71593 31946 ft 452 kts 112°
2026-05-01 09:06 -32.43575 117.75192 32206 ft 452 kts 112°
2026-05-01 09:07 -32.44363 117.78805 32461 ft 453 kts 112°
2026-05-01 09:07 -32.45150 117.82417 32725 ft 453 kts 112°
2026-05-01 09:07 -32.45934 117.86022 32992 ft 453 kts 112°
2026-05-01 09:07 -32.46718 117.89633 33256 ft 452 kts 112°
2026-05-01 09:08 -32.47501 117.93246 33529 ft 452 kts 112°
2026-05-01 09:08 -32.48280 117.96844 33800 ft 451 kts 112°
2026-05-01 09:08 -32.49057 118.00438 34074 ft 450 kts 112°
2026-05-01 09:08 -32.49831 118.04023 34334 ft 449 kts 112°
2026-05-01 09:09 -32.50602 118.07601 34569 ft 447 kts 112°
2026-05-01 09:09 -32.51370 118.11169 34809 ft 446 kts 112°
2026-05-01 09:09 -32.52135 118.14728 35048 ft 445 kts 112°
2026-05-01 09:09 -32.52895 118.18270 35243 ft 445 kts 112°
2026-05-01 09:10 -32.54441 118.25453 35223 ft 454 kts 112°
2026-05-01 09:10 -32.56010 118.32788 35223 ft 464 kts 112°
2026-05-01 09:11 -32.57599 118.40256 35219 ft 471 kts 112°
2026-05-01 09:11 -32.59203 118.47821 35218 ft 475 kts 112°
2026-05-01 09:12 -32.60816 118.55454 35218 ft 479 kts 112°
2026-05-01 09:12 -32.62433 118.63128 35214 ft 481 kts 112°
2026-05-01 09:13 -32.64054 118.70845 35212 ft 483 kts 112°
2026-05-01 09:13 -32.65675 118.78584 35211 ft 484 kts 112°
2026-05-01 09:14 -32.67295 118.86348 35211 ft 485 kts 112°
2026-05-01 09:14 -32.68915 118.94137 35207 ft 486 kts 112°
2026-05-01 09:15 -32.70532 119.01933 35208 ft 486 kts 112°
2026-05-01 09:15 -32.72144 119.09736 35203 ft 487 kts 112°
2026-05-01 09:16 -32.73746 119.17509 35203 ft 488 kts 112°
2026-05-01 09:17 -32.76160 119.29270 35203 ft 489 kts 112°
2026-05-01 09:17 -32.78569 119.41075 35200 ft 491 kts 112°
2026-05-01 09:18 -32.80967 119.52890 35196 ft 492 kts 111°
2026-05-01 09:19 -32.83369 119.64781 35197 ft 493 kts 111°
2026-05-01 09:20 -32.85763 119.76696 35185 ft 494 kts 111°
2026-05-01 09:21 -32.88688 119.91341 35187 ft 496 kts 111°
2026-05-01 09:21 -32.91063 120.03300 35186 ft 497 kts 111°
2026-05-01 09:22 -32.94235 120.19357 35178 ft 499 kts 111°
2026-05-01 09:23 -32.96607 120.31457 35176 ft 500 kts 111°
2026-05-01 09:24 -32.98966 120.43564 35170 ft 502 kts 111°
2026-05-01 09:25 -33.01779 120.59974 35172 ft 508 kts 108°
2026-05-01 09:26 -33.03652 120.72447 35166 ft 510 kts 108°
2026-05-01 09:26 -33.05510 120.84920 35163 ft 512 kts 108°
2026-05-01 09:27 -33.07371 120.97509 35158 ft 514 kts 108°
2026-05-01 09:28 -33.08607 121.05920 35154 ft 515 kts 108°
2026-05-01 09:28 -33.09831 121.14293 35150 ft 517 kts 108°
2026-05-01 09:29 -33.11676 121.26990 35147 ft 518 kts 108°
2026-05-01 09:30 -33.13516 121.39742 35140 ft 520 kts 107°
2026-05-01 09:30 -33.15347 121.52537 35138 ft 522 kts 107°
2026-05-01 09:31 -33.16557 121.61033 35132 ft 523 kts 107°
2026-05-01 09:32 -33.18375 121.73886 35131 ft 524 kts 107°
2026-05-01 09:32 -33.20201 121.86772 35121 ft 524 kts 108°
2026-05-01 09:33 -33.21692 121.95259 35117 ft 522 kts 109°
2026-05-01 09:34 -33.23973 122.07990 35112 ft 523 kts 109°
2026-05-01 09:34 -33.26189 122.20756 35106 ft 523 kts 108°
2026-05-01 09:35 -33.28379 122.33478 35101 ft 523 kts 108°
2026-05-01 09:36 -33.29840 122.42015 35094 ft 523 kts 108°
2026-05-01 09:36 -33.31287 122.50508 35091 ft 523 kts 107°
2026-05-01 09:37 -33.32737 122.59056 35093 ft 523 kts 107°
2026-05-01 09:37 -33.34895 122.71843 35086 ft 522 kts 107°
2026-05-01 09:38 -33.37030 122.84582 35075 ft 522 kts 107°
2026-05-01 09:39 -33.39160 122.97375 35069 ft 522 kts 106°
2026-05-01 09:39 -33.40572 123.05907 35061 ft 523 kts 106°
2026-05-01 09:40 -33.42673 123.18666 35062 ft 523 kts 105°
2026-05-01 09:41 -33.44073 123.27216 35062 ft 523 kts 105°
2026-05-01 09:41 -33.46165 123.40062 35056 ft 524 kts 105°
2026-05-01 09:42 -33.47557 123.48660 35043 ft 524 kts 105°
2026-05-01 09:43 -33.50308 123.65781 35043 ft 525 kts 104°
2026-05-01 09:43 -33.51680 123.74377 35036 ft 525 kts 104°
2026-05-01 09:44 -33.53732 123.87302 35034 ft 526 kts 104°
2026-05-01 09:45 -33.55092 123.95921 35029 ft 527 kts 104°
2026-05-01 09:45 -33.57125 124.08880 35027 ft 527 kts 103°
2026-05-01 09:46 -33.58476 124.17544 35025 ft 528 kts 103°
2026-05-01 09:46 -33.59819 124.26195 35024 ft 528 kts 103°
2026-05-01 09:47 -33.61157 124.34860 35022 ft 528 kts 103°
2026-05-01 09:47 -33.62492 124.43541 35017 ft 529 kts 102°
2026-05-01 09:48 -33.63820 124.52227 35016 ft 529 kts 102°
2026-05-01 09:48 -33.65144 124.60926 35013 ft 530 kts 102°
2026-05-01 09:49 -33.66464 124.69638 35011 ft 530 kts 102°
2026-05-01 09:49 -33.67777 124.78354 35013 ft 531 kts 102°
2026-05-01 09:50 -33.69080 124.87041 35007 ft 531 kts 102°
2026-05-01 09:50 -33.70386 124.95775 35004 ft 531 kts 101°
2026-05-01 09:51 -33.71687 125.04528 35002 ft 532 kts 101°
2026-05-01 09:51 -33.72974 125.13297 34998 ft 532 kts 101°
2026-05-01 09:52 -33.74260 125.22047 34993 ft 532 kts 101°
2026-05-01 09:52 -33.75536 125.30772 34990 ft 533 kts 100°
2026-05-01 09:53 -33.76813 125.39556 34993 ft 533 kts 100°
2026-05-01 09:53 -33.78084 125.48349 34989 ft 533 kts 100°
2026-05-01 09:54 -33.79349 125.57141 34984 ft 533 kts 99°
2026-05-01 09:54 -33.80592 125.65823 34981 ft 534 kts 99°
2026-05-01 09:55 -33.81844 125.74620 34981 ft 534 kts 99°
2026-05-01 09:55 -33.83092 125.83431 34976 ft 534 kts 99°
2026-05-01 09:56 -33.84332 125.92240 34976 ft 534 kts 99°
2026-05-01 09:56 -33.85569 126.01064 34970 ft 535 kts 98°
2026-05-01 09:57 -33.86792 126.09841 34972 ft 535 kts 98°
2026-05-01 09:57 -33.88018 126.18681 34967 ft 535 kts 98°
2026-05-01 09:58 -33.89236 126.27521 34964 ft 535 kts 98°
2026-05-01 09:58 -33.90441 126.36309 34962 ft 535 kts 97°
2026-05-01 09:59 -33.91649 126.45166 34961 ft 536 kts 97°
2026-05-01 09:59 -33.92849 126.54020 34957 ft 536 kts 97°
2026-05-01 10:00 -33.94038 126.62839 34954 ft 536 kts 97°
2026-05-01 10:00 -33.95228 126.71710 34951 ft 536 kts 97°
2026-05-01 10:01 -33.96411 126.80581 34953 ft 537 kts 96°
2026-05-01 10:01 -33.97587 126.89459 34951 ft 537 kts 96°
2026-05-01 10:02 -33.98760 126.98359 34950 ft 537 kts 96°
2026-05-01 10:02 -33.99926 127.07254 34946 ft 537 kts 96°
2026-05-01 10:03 -34.00890 127.14649 34941 ft 538 kts 95°
2026-05-01 10:03 -34.02233 127.25010 34949 ft 538 kts 95°
2026-05-01 10:04 -34.03383 127.33936 34939 ft 539 kts 95°
2026-05-01 10:04 -34.04528 127.42884 34938 ft 540 kts 95°
2026-05-01 10:05 -34.05669 127.51851 34936 ft 541 kts 94°
2026-05-01 10:05 -34.06615 127.59328 34934 ft 542 kts 94°
2026-05-01 10:06 -34.07747 127.68323 34924 ft 543 kts 94°
2026-05-01 10:06 -34.08876 127.77349 34921 ft 544 kts 94°
2026-05-01 10:07 -34.10000 127.86390 34923 ft 544 kts 94°
2026-05-01 10:07 -34.11110 127.95368 34918 ft 545 kts 94°
2026-05-01 10:08 -34.12778 128.09010 34920 ft 545 kts 94°
2026-05-01 10:09 -34.13870 128.18012 34902 ft 546 kts 93°
2026-05-01 10:09 -34.14969 128.27084 34915 ft 546 kts 93°
2026-05-01 10:10 -34.16061 128.36156 34894 ft 546 kts 93°
2026-05-01 10:10 -34.17685 128.49781 34905 ft 546 kts 93°
2026-05-01 10:11 -34.18756 128.58851 34907 ft 546 kts 93°
2026-05-01 10:11 -34.19823 128.67933 34902 ft 546 kts 93°
2026-05-01 10:12 -34.20883 128.77020 34898 ft 546 kts 93°
2026-05-01 10:13 -34.22457 128.90635 34879 ft 547 kts 93°
2026-05-01 10:13 -34.23502 128.99745 34890 ft 548 kts 93°
2026-05-01 10:14 -34.25057 129.13405 34882 ft 548 kts 92°
2026-05-01 10:14 -34.26083 129.22495 34880 ft 548 kts 92°
2026-05-01 10:15 -34.27107 129.31632 34868 ft 548 kts 92°
2026-05-01 10:15 -34.28125 129.40772 34865 ft 548 kts 92°
2026-05-01 10:16 -34.29135 129.49909 34865 ft 548 kts 92°
2026-05-01 10:17 -34.30636 129.63609 34846 ft 547 kts 92°
2026-05-01 10:17 -34.32120 129.77285 34852 ft 546 kts 92°
2026-05-01 10:18 -34.33585 129.90944 34842 ft 545 kts 92°
2026-05-01 10:19 -34.34547 129.99984 34831 ft 544 kts 92°
2026-05-01 10:19 -34.35504 130.09048 34838 ft 543 kts 92°
2026-05-01 10:20 -34.36925 130.22630 34829 ft 541 kts 92°
2026-05-01 10:20 -34.37863 130.31668 34827 ft 540 kts 92°
2026-05-01 10:21 -34.39252 130.45192 34829 ft 539 kts 92°
2026-05-01 10:22 -34.40626 130.58707 34828 ft 538 kts 92°
2026-05-01 10:23 -34.41984 130.72222 34809 ft 538 kts 92°
2026-05-01 10:23 -34.43319 130.85648 34826 ft 537 kts 92°
2026-05-01 10:24 -34.44208 130.94635 34988 ft 537 kts 91°
2026-05-01 10:24 -34.45079 131.03352 35762 ft 499 kts 90°
2026-05-01 10:25 -34.45882 131.11652 36265 ft 493 kts 90°
2026-05-01 10:25 -34.46661 131.19835 36753 ft 489 kts 90°
2026-05-01 10:26 -34.47443 131.28084 36829 ft 495 kts 90°
2026-05-01 10:27 -34.49032 131.44928 36825 ft 509 kts 90°
2026-05-01 10:28 -34.50229 131.57778 36825 ft 516 kts 90°
2026-05-01 10:28 -34.51431 131.70809 36825 ft 520 kts 90°
2026-05-01 10:29 -34.52631 131.83901 36824 ft 520 kts 90°
2026-05-01 10:30 -34.54197 132.01301 36827 ft 520 kts 90°
2026-05-01 10:31 -34.55741 132.18740 36825 ft 520 kts 90°
2026-05-01 10:32 -34.56877 132.31777 36826 ft 520 kts 90°
2026-05-01 10:33 -34.58379 132.49228 36823 ft 519 kts 90°
2026-05-01 10:34 -34.59487 132.62299 36822 ft 519 kts 90°
2026-05-01 10:34 -34.60220 132.71030 36828 ft 518 kts 90°
2026-05-01 10:35 -34.61305 132.84114 36824 ft 520 kts 90°
2026-05-01 10:35 -34.62022 132.92850 36823 ft 521 kts 90°
2026-05-01 10:36 -34.63079 133.05869 36827 ft 521 kts 90°
2026-05-01 10:37 -34.63782 133.14628 36829 ft 521 kts 90°
2026-05-01 10:37 -34.64825 133.27773 36829 ft 521 kts 90°
2026-05-01 10:38 -34.65514 133.36538 36828 ft 521 kts 90°
2026-05-01 10:38 -34.66197 133.45323 36834 ft 521 kts 90°
2026-05-01 10:39 -34.66873 133.54099 36834 ft 522 kts 90°
2026-05-01 10:39 -34.67544 133.62894 36835 ft 522 kts 90°
2026-05-01 10:40 -34.68204 133.71632 36847 ft 522 kts 90°
2026-05-01 10:40 -34.68861 133.80418 36838 ft 522 kts 90°
2026-05-01 10:41 -34.69510 133.89182 36838 ft 523 kts 89°
2026-05-01 10:42 -34.70479 134.02415 36847 ft 523 kts 89°
2026-05-01 10:42 -34.71116 134.11229 36848 ft 523 kts 89°
2026-05-01 10:43 -34.71743 134.19998 36854 ft 523 kts 89°
2026-05-01 10:43 -34.72367 134.28819 36856 ft 524 kts 89°
2026-05-01 10:44 -34.72985 134.37639 36861 ft 524 kts 89°
2026-05-01 10:44 -34.73597 134.46471 36868 ft 523 kts 89°
2026-05-01 10:45 -34.74202 134.55294 36871 ft 523 kts 89°
2026-05-01 10:45 -34.74800 134.64106 36877 ft 523 kts 89°
2026-05-01 10:46 -34.75392 134.72925 36882 ft 523 kts 89°
2026-05-01 10:46 -34.75977 134.81736 36876 ft 523 kts 89°
2026-05-01 10:47 -34.76554 134.90502 36885 ft 523 kts 89°
2026-05-01 10:47 -34.77038 134.97889 36888 ft 522 kts 89°
2026-05-01 10:48 -34.77693 135.08115 36887 ft 522 kts 89°
2026-05-01 10:48 -34.78156 135.15475 36890 ft 521 kts 89°
2026-05-01 10:49 -34.78703 135.24207 36895 ft 520 kts 89°
2026-05-01 10:49 -34.79246 135.32976 36894 ft 519 kts 89°
2026-05-01 10:50 -34.79783 135.41746 36896 ft 518 kts 89°
2026-05-01 10:50 -34.80313 135.50502 36897 ft 518 kts 89°
2026-05-01 10:51 -34.80832 135.59185 36898 ft 517 kts 89°
2026-05-01 10:51 -34.81348 135.67922 36901 ft 517 kts 89°
2026-05-01 10:52 -34.81857 135.76652 36903 ft 517 kts 89°
2026-05-01 10:52 -34.82361 135.85400 36896 ft 517 kts 89°
2026-05-01 10:53 -34.82859 135.94140 36896 ft 517 kts 89°
2026-05-01 10:53 -34.83022 136.02846 36891 ft 512 kts 82°
2026-05-01 10:54 -34.82579 136.11432 36824 ft 500 kts 80°
2026-05-01 10:54 -34.82357 136.15627 36482 ft 493 kts 80°
2026-05-01 10:54 -34.82137 136.19739 35913 ft 492 kts 80°
2026-05-01 10:54 -34.81910 136.23902 35318 ft 491 kts 80°
2026-05-01 10:55 -34.81684 136.28038 34735 ft 490 kts 80°
2026-05-01 10:55 -34.81457 136.32176 34168 ft 486 kts 80°
2026-05-01 10:55 -34.81232 136.36261 33558 ft 481 kts 80°
2026-05-01 10:55 -34.81009 136.40301 32911 ft 477 kts 80°
2026-05-01 10:56 -34.80785 136.44299 32289 ft 473 kts 80°
2026-05-01 10:56 -34.80560 136.48278 31667 ft 469 kts 80°
2026-05-01 10:56 -34.80336 136.52222 31064 ft 465 kts 80°
2026-05-01 10:56 -34.80112 136.56139 30478 ft 462 kts 80°
2026-05-01 10:57 -34.79889 136.60022 29883 ft 457 kts 80°
2026-05-01 10:57 -34.79668 136.63859 29221 ft 452 kts 80°
2026-05-01 10:57 -34.79449 136.67650 28562 ft 447 kts 80°
2026-05-01 10:57 -34.79229 136.71417 27923 ft 442 kts 80°
2026-05-01 10:58 -34.79012 136.75123 27300 ft 438 kts 80°
2026-05-01 10:58 -34.78798 136.78752 26692 ft 433 kts 80°
2026-05-01 10:58 -34.78581 136.82405 26098 ft 429 kts 80°
2026-05-01 10:58 -34.78367 136.86011 25512 ft 425 kts 80°
2026-05-01 10:59 -34.78152 136.89599 24945 ft 422 kts 80°
2026-05-01 10:59 -34.77939 136.93139 24383 ft 418 kts 80°
2026-05-01 10:59 -34.77727 136.96657 23834 ft 415 kts 80°
2026-05-01 10:59 -34.77516 137.00138 23261 ft 412 kts 80°
2026-05-01 11:00 -34.77306 137.03598 22620 ft 409 kts 80°
2026-05-01 11:00 -34.77096 137.07038 21995 ft 405 kts 80°
2026-05-01 11:00 -34.76888 137.10442 21385 ft 402 kts 80°
2026-05-01 11:00 -34.76683 137.13772 20784 ft 399 kts 80°
2026-05-01 11:01 -34.76477 137.17121 20206 ft 395 kts 79°
2026-05-01 11:01 -34.76269 137.20489 19606 ft 392 kts 79°
2026-05-01 11:01 -34.76065 137.23781 19038 ft 389 kts 79°
2026-05-01 11:01 -34.75862 137.27042 18473 ft 386 kts 79°
2026-05-01 11:02 -34.75661 137.30241 17901 ft 382 kts 79°
2026-05-01 11:02 -34.75455 137.33455 17278 ft 379 kts 79°
2026-05-01 11:02 -34.75249 137.36651 16657 ft 376 kts 79°
2026-05-01 11:02 -34.75043 137.39817 16053 ft 373 kts 79°
2026-05-01 11:03 -34.74839 137.42963 15457 ft 370 kts 80°
2026-05-01 11:03 -34.74638 137.46037 14883 ft 368 kts 80°
2026-05-01 11:03 -34.74435 137.49125 14317 ft 365 kts 80°
2026-05-01 11:03 -34.74234 137.52195 13756 ft 362 kts 81°
2026-05-01 11:04 -34.74034 137.55236 13134 ft 360 kts 81°
2026-05-01 11:04 -34.73836 137.58259 12516 ft 358 kts 81°
2026-05-01 11:04 -34.73639 137.61259 11999 ft 353 kts 81°
2026-05-01 11:04 -34.73584 137.64219 11613 ft 348 kts 90°
2026-05-01 11:05 -34.73923 137.67113 11246 ft 344 kts 99°
2026-05-01 11:05 -34.74591 137.69918 10892 ft 350 kts 104°
2026-05-01 11:05 -34.75305 137.72749 10522 ft 349 kts 104°
2026-05-01 11:05 -34.75999 137.75547 10157 ft 343 kts 103°
2026-05-01 11:06 -34.76685 137.78332 9798 ft 344 kts 103°
2026-05-01 11:06 -34.77367 137.81106 9416 ft 340 kts 103°
2026-05-01 11:06 -34.78044 137.83855 9028 ft 339 kts 103°
2026-05-01 11:07 -34.79394 137.89340 8272 ft 333 kts 103°
2026-05-01 11:07 -34.80057 137.92040 7892 ft 333 kts 103°
2026-05-01 11:07 -34.80709 137.94689 7529 ft 329 kts 103°
2026-05-01 11:07 -34.81365 137.97364 7166 ft 328 kts 102°
2026-05-01 11:08 -34.82012 138.00002 6813 ft 323 kts 102°
2026-05-01 11:08 -34.82653 138.02626 6448 ft 323 kts 102°
2026-05-01 11:08 -34.83918 138.07813 5709 ft 320 kts 102°
2026-05-01 11:09 -34.84547 138.10394 5409 ft 317 kts 102°
2026-05-01 11:09 -34.85270 138.12932 5104 ft 319 kts 111°
2026-05-01 11:09 -34.86449 138.15236 4719 ft 320 kts 126°
2026-05-01 11:10 -34.89303 138.19278 3914 ft 309 kts 126°
2026-05-01 11:10 -34.90232 138.20608 3661 ft 306 kts 126°
2026-05-01 11:10 -34.91595 138.22574 3274 ft 302 kts 126°
2026-05-01 11:10 -34.92943 138.24526 2876 ft 299 kts 125°
2026-05-01 11:11 -34.94260 138.26434 2496 ft 295 kts 125°
2026-05-01 11:11 -34.95565 138.28320 2227 ft 287 kts 124°
2026-05-01 11:11 -34.96834 138.30157 1938 ft 279 kts 121°
2026-05-01 11:11 -34.97908 138.32059 1595 ft 267 kts 116°
2026-05-01 11:12 -34.98909 138.33895 1382 ft 254 kts 116°
2026-05-01 11:12 -34.99843 138.35663 1257 ft 240 kts 112°
2026-05-01 11:12 -35.00671 138.37403 1140 ft 237 kts 112°
2026-05-01 11:12 -35.01487 138.39115 1099 ft 226 kts 113°
2026-05-01 11:13 -35.02114 138.40812 1076 ft 220 kts 90°
2026-05-01 11:13 -35.01974 138.42552 1108 ft 193 kts 59°
2026-05-01 11:13 -35.01261 138.43791 1147 ft 168 kts 43°
2026-05-01 11:13 -35.00571 138.44804 1210 ft 143 kts 43°
2026-05-01 11:14 -34.99961 138.45722 1093 ft 139 kts 42°
2026-05-01 11:14 -34.99347 138.46604 904 ft 140 kts 44°
2026-05-01 11:14 -34.98722 138.47485 781 ft 136 kts 45°
2026-05-01 11:14 -34.98107 138.48382 698 ft 146 kts 50°
2026-05-01 11:15 -34.97473 138.49395 490 ft 146 kts 52°
2026-05-01 11:15 -34.96834 138.50316 319 ft 144 kts 47°
2026-05-01 11:15 -34.96191 138.51226 170 ft 140 kts 51°
2026-05-01 11:15 -34.95576 138.52125 31 ft 134 kts 49°
2026-05-01 11:16 -34.95075 138.52852 23 ft 94 kts 50°
2026-05-01 11:16 -34.94745 138.53332 24 ft 61 kts 51°
2026-05-01 11:16 -34.94600 138.53524 23 ft 8 kts 20°
2026-05-01 11:16 -34.94558 138.53496 22 ft 8 kts 311°
2026-05-01 11:17 -34.94525 138.53445 24 ft 2 kts 309°
2026-05-01 11:17 -34.94522 138.53442 23 ft 0 kts 310°
2026-05-01 11:19 -34.94520 138.53438 26 ft 2 kts 311°
2026-05-01 11:19 -34.94492 138.53411 25 ft 8 kts 335°
2026-05-01 11:19 -34.94436 138.53443 25 ft 11 kts 47°
2026-05-01 11:19 -34.94375 138.53531 25 ft 16 kts 50°
2026-05-01 11:20 -34.94295 138.53648 26 ft 19 kts 50°
2026-05-01 11:20 -34.94210 138.53774 26 ft 20 kts 51°
2026-05-01 11:20 -34.94122 138.53901 26 ft 20 kts 48°
2026-05-01 11:20 -34.94033 138.54029 26 ft 20 kts 51°
2026-05-01 11:21 -34.93956 138.54140 27 ft 13 kts 43°
2026-05-01 11:21 -34.93883 138.54127 27 ft 9 kts 321°
2026-05-01 11:21 -34.93852 138.54078 27 ft 7 kts 317°
2026-05-01 11:21 -34.93828 138.54053 27 ft 4 kts 319°
2026-05-01 11:22 -34.93807 138.54032 27 ft 2 kts 321°
2026-05-01 11:22 -34.93802 138.54027 27 ft 0 kts 321°